Tracking 27126 objects as of 30-Mar-2023
HD Live streaming from Space Station
objects crossing your sky now

BREEZE-M R/B

Track BREEZE-M R/B now!


NORAD ID: 28925
Int'l Code: 2005-052B
Perigee: 6,075.2 km
Apogee: 35,466.1 km
Inclination: 18.7 °
Period: 741.7 minutes
Semi major axis: 27141 km
RCS: 0.6439 m2 (medium)
Launch date: December 29, 2005
Source: Commonwealth of Independent States (former USSR) (CIS)
Launch site: TYURATAM MISSILE AND SPACE COMPLEX (TTMTR)

Note: This is a ROCKET BODY
Your satellite tracking list
Your tracking list is empty




NASA's NSSDC Master Catalog

Two Line Element Set (TLE):
1 28925U 05052B   23088.81924253 -.00000270  00000-0  00000-0 0  9993
2 28925  18.7231  97.2860 5414359 315.2029 276.1597  1.94155216122258
Source of the keplerian elements: AFSPC